Regional Weather Roundup
Issued by NWS

Home | Current Version | Previous Version | Text Only | Print | Product List | Glossary On
Versions: 1 2 3 4 5 6 7 8 9 10 11 12 13 14 15 16 17 18 19 20 21 22 23 24 25 26 27 28 29 30 31 32 33 34 35 36 37 38 39 40 41 42 43 44 45 46 47 48 49 50
000
ASUS45 KBOU 152110
RWRCO

WEATHER ROUNDUP FOR COLORADO
NATIONAL WEATHER SERVICE DENVER/BOULDER CO
300 PM MDT SAT MAY 15 2021

NOTE: "FAIR" INDICATES FEW OR NO CLOUDS BELOW 12000 FEET WITH NO
SIGNIFICANT WEATHER AND/OR OBSTRUCTIONS TO VISIBILITY.

COZ001>005-013-030-031-152200-
...NORTHWEST COLORADO...

CITY           SKY/WX    TMP DP  RH WIND       PRES   REMARKS
CRAIG          FAIR      73  34  23 SW12      29.90F
HAYDEN         TSTM      64  36  34 S22G38    29.95S
MEEKER         FAIR      76  14   9 SW13G28   29.90F
RANGELY        FAIR      78  29  17 W10       29.86F
RABBIT EARS PA PTSUNNY   46  23  39 CALM      30.21S
STEAMBOAT SPGS PTSUNNY   66  28  23 S9        29.96R
WALDEN         FAIR      57  25  29 S20G30    30.05F
$$

COZ006>008-011-152200-
...WEST CENTRAL VALLEYS...

CITY           SKY/WX    TMP DP  RH WIND       PRES   REMARKS
GRAND JUNCTION FAIR      83  15   8 W12       29.82F
MONTROSE       FAIR      80  19  10 W17G26    29.91F
EAGLE          FAIR      72  20  14 CALM      29.95F
RIFLE          FAIR      80  18  10 W14G25    29.85F
DELTA          FAIR      86  12   6 SW13G26   29.87S
NUCLA          NOT AVBL
$$

COZ017>023-064>068-152200-
...SOUTHWEST COLORADO...

CITY           SKY/WX    TMP DP  RH WIND       PRES   REMARKS
DURANGO        FAIR      75  12   9 SW15G28   30.01F
CORTEZ         FAIR      80  17   9 SW6G18    29.96F
PAGOSA SPRINGS FAIR      71  20  14 SW12G21   30.09S
TELLURIDE      PTSUNNY   63  14  15 SE20      30.14F
WOLF CREEK PAS FAIR      45  21  39 SW16G30   30.36F
$$

COZ009-010-012-014-032>034-037-058>063-152200-
...CENTRAL COLORADO...

CITY           SKY/WX    TMP DP  RH WIND       PRES   REMARKS
ASPEN          FAIR      70  18  13 VRB6G21   30.01F
BUENA VISTA    FAIR      70   8   9 SE29G36   30.03F
COPPER MTN     CLOUDY    54  12  19 SW12G18   30.31F
BERTHOUD PASS  PTSUNNY   37  27  65 SW15G37   30.33S
DAKOTA HILL    PTSUNNY   43  36  75 E9        30.24F
COTTONWOOD PAS FAIR      63   5  10 W7G24     30.16S
GUNNISON       FAIR      70  20  15 S12G28    30.02F
GRANBY         FAIR      64  27  25 NW17G23   30.05R
KREMMLING      FAIR      68  28  22 N16G26    29.99F
LEADVILLE      NOT AVBL
SALIDA         PTSUNNY   66  26  22 S9G21     30.13F
SUNLIGHT         N/A     54  14  20 SW12G24   30.23F
WILKERSON PASS CLOUDY    50  28  43 S9G22     30.28S
$$

COZ069>075-152200-
...SAN LUIS VALLEY/SANGRE DE CRISTO MOUNTAINS...

CITY           SKY/WX    TMP DP  RH WIND       PRES   REMARKS
ALAMOSA        FAIR      76  23  14 W16G33    30.02F
DEL NORTE      FAIR      71  23  16 W10G21    30.06F
LA VETA PASS   FAIR      46  41  81 E7        30.23F
SAGUACHE       FAIR      73  21  14 SW20G30   30.03F
$$

COZ035-036-038>040-152200-
...NORTHERN COLORADO FRONT RANGE...

CITY           SKY/WX    TMP DP  RH WIND       PRES   REMARKS
DENVER INTL AP PTSUNNY   65  49  56 E17       29.96F
AURORA         PTSUNNY   63  50  61 SE24G32   30.00F
WATKINS        NOT AVBL
ERIE           CLOUDY    62  53  72 N9        30.00F
BOULDER        CLOUDY    61  52  72 N13       30.01F
CENTENNIAL     PTSUNNY   63  49  60 E16G22    30.01F THUNDER
BROOMFIELD     NOT AVBL
FORT COLLINS   CLOUDY    59  51  75 SW3       30.03F
LONGMONT       CLOUDY    61  51  70 N9        30.04F
$$

COZ041-046-047-076>085-087-088-152200-
...PIKES PEAK/PALMER DIVIDE AND SOUTHERN FOOTHILLS...

CITY           SKY/WX    TMP DP  RH WIND       PRES   REMARKS
COLO. SPRINGS  PTSUNNY   65  46  50 SE10      30.04F
A. F. ACADEMY  NOT AVBL
SCHRIEVER AFB  NOT AVBL
CHEYENNE MTN   PTSUNNY   59  46  62 SE13      30.03S
ELLICOTT       FAIR      64  49  59 SE10      30.06F
FALCON         FAIR      64  44  47 SE17      30.08F
FORT CARSON    NOT AVBL
LIMON          CLOUDY    61  49  64 SE16      30.03F
MONUMENT HILL  PTSUNNY   57  45  62 SE12      30.10S
CANON CITY     FAIR      70  50  49 E17       30.00S
WALSENBURG     NOT AVBL
TRINIDAD       LGT RAIN  70  38  31 N16G41    29.98F
$$

COZ042>045-048>051-090-091-152200-
...NORTHEAST COLORADO...

CITY           SKY/WX    TMP DP  RH WIND       PRES   REMARKS
GREELEY        CLOUDY    65  52  62 E12       30.02F
AKRON          CLOUDY    64  53  67 SE17      30.01S
BURLINGTON     CLOUDY    67  54  63 SE14      30.01F
WRAY           CLOUDY    66  54  63 E12       30.01F
YUMA           CLOUDY    64  25  22 E15       30.00F
STERLING       CLOUDY    64  55  72 SE7       30.01S
HOLYOKE        FAIR      68  54  60 E8        30.02F
FORT MORGAN    CLOUDY    66  50  57 E8        30.02S
$$

COZ086-089-092>099-152200-
...SOUTHEAST COLORADO...

CITY           SKY/WX    TMP DP  RH WIND       PRES   REMARKS
PUEBLO         FAIR      67  50  54 SE14      29.98F
LA JUNTA       FAIR      75  53  46 E15       29.96S
LAMAR          NOT AVBL
SPRINGFIELD      N/A     77  49  37 SE10G18   29.95F
$$



USA.gov is the U.S. government's official web portal to all federal, state and local government web resources and services.